Regional Weather Roundup
Issued by NWS Jackson, KY

Home | Current Version | Previous Version | Graphics & Text | Print | Product List | Glossary On
Versions: 1 2 3 4 5 6 7 8 9 10 11 12 13 14 15 16 17 18 19 20 21 22 23 24 25 26 27 28 29 30 31 32 33 34 35 36 37 38 39 40 41 42 43 44 45 46 47 48 49 50
000
ASUS43 KJKL 010110
RWRJKL

EAST KENTUCKY HOURLY WEATHER ROUNDUP
NATIONAL WEATHER SERVICE JACKSON KY
900 PM EDT MON AUG 31 2015

NOTE: "FAIR" INDICATES FEW OR NO CLOUDS BELOW 12,000 FEET WITH
NO SIGNIFICANT WEATHER AND/OR OBSTRUCTIONS TO VISIBILITY.

* THESE REPORTS ARE NOT UNDER NWS QUALITY CONTROL AND MAY NOT
  REPORT WEATHER SUCH AS PRECIPITATION AND FOG.

KYZ079-080-083-085-087-088-110-112-115-119-120-010200
...EASTERN KENTUCKY...

CITY           SKY/WX    TMP DP  RH WIND       PRES   REMARKS
JACKSON        CLEAR     79  62  56 CALM      30.12R
LONDON         CLEAR     75  65  70 CALM      30.11S
SOMERSET*      CLEAR     70  68  94 CALM      30.12R
MONTICELLO*    CLEAR     70  69  96 CALM      30.13R
MIDDLESBORO*   CLEAR     73  67  81 W3        30.12R
HAZARD APT*    CLEAR     73  68  83 CALM      30.12R
PIKEVILLE APT* CLEAR     75  64  69 CALM      30.13R
BIG SANDY*     CLEAR     76  67  71 CALM      30.12R
MOREHEAD APT*  CLEAR     75  64  69 CALM      30.12R
$$

KYZ035-036-041-042-044-050-067-078-099-010200
...CENTRAL KENTUCKY...

CITY           SKY/WX    TMP DP  RH WIND       PRES   REMARKS
MT STERLING*   CLEAR     72  70  94 CALM      30.12R
FLEMING/MASON* CLEAR     77  68  73 CALM      30.11R
DANVILLE*      CLEAR     73  64  73 CALM      30.12R
RICHMOND*      CLEAR     77  63  61 CALM      30.10R
LEXINGTON      CLEAR     77  63  61 CALM      30.10R
FRANKFORT      CLEAR     73  65  75 CALM      30.08S
$$

KYZ091>093-OHZ055-061-077-WVZ005-015-034-035-042-010200
...SOUTHERN OHIO/WEST VIRGINIA...

CITY           SKY/WX    TMP DP  RH WIND       PRES   REMARKS
COVINGTON      PTCLDY    77  67  71 CALM      30.09R
COLUMBUS       MOCLDY    76  67  73 CALM      30.07R
DAYTON         MOCLDY    74  71  91 CALM      30.10R
WILMINGTON       N/A     72  67  84 W3        30.10R
HUNTINGTON       N/A     74  70  87 CALM      30.09R
CHARLESTON       N/A     74  68  81 CALM      30.09R
PINEVILLE*     CLOUDY    71  71 100 MISG      30.19S
BECKLEY          N/A     67  61  81 SW3       30.18R
BLUEFIELD        N/A     73  61  65 CALM      30.20R
$$

VAZ002-007-008-TNZ017-027-036-066-071-010200
...SOUTHWEST VIRGINIA/EAST TENNESSEE...

CITY           SKY/WX    TMP DP  RH WIND       PRES   REMARKS
WISE*            N/A     70  59  68 N5        30.21R
JONESVILLE*      N/A     72  66  83 CALM      30.14S
ABINGDON*        N/A     71  64  79 CALM      30.16R
BRISTOL          N/A     71  66  84 N3        30.12R
KNOXVILLE      CLEAR     77  64  64 E3        30.08R
OAK RIDGE        N/A     76  68  76 CALM      30.11R
CROSSVILLE     CLEAR     70  66  87 CALM      30.15R
NASHVILLE        N/A     79  63  57 CALM      30.08R
$$

...KEY TO REMARKS...
VSB - VISIBILITY IN MILES
WCI - WIND CHILL INDEX
HX  - HEAT INDEX

$$


USA.gov is the U.S. government's official web portal to all federal, state and local government web resources and services.